Theta_e
322 318 315 310 297 294 290 295 297 299 303 308 311 309 309 312 310 304 327 331 337 336 343 344 346 348 348 348 346 346 345 342 337 337 336 336 335 335 335 335 335 335 335 335 335 334 334 335 334
319 318 312 303 292 287 289 294 297 302 306 308 308 308 308 311 322 323 325 336 337 338 342 343 344 347 347 347 346 344 344 342 337 337 336 336 336 336 335 334 334 334 335 335 334 333 333 334 335
311 318 305 299 290 288 289 293 295 299 304 307 306 311 312 315 322 324 329 337 338 338 341 343 343 346 347 347 345 345 344 341 340 337 336 336 336 335 336 334 334 334 335 335 334 333 333 335 334
308 309 304 295 292 295 293 298 301 300 301 306 308 305 318 325 325 329 335 337 337 338 340 341 344 346 347 346 345 344 343 341 340 336 336 336 335 336 336 335 335 335 335 334 334 334 335 335 336
310 303 295 292 294 297 300 302 303 300 299 299 307 301 313 325 330 331 334 337 335 336 338 340 343 345 346 346 345 344 343 341 340 338 335 336 335 334 333 336 334 334 335 334 335 335 336 337 338
303 301 292 290 293 299 301 302 302 300 301 301 300 300 313 324 327 329 330 333 336 335 336 340 337 340 343 344 343 343 342 341 339 338 337 336 335 335 333 332 333 335 335 334 336 336 339 338 338
300 296 291 290 293 296 299 302 300 301 302 303 305 301 314 321 326 328 330 328 334 335 335 337 340 338 336 338 339 340 340 339 338 337 335 333 333 334 334 332 331 334 338 336 337 337 339 338 336
300 297 289 289 291 293 298 299 303 300 302 306 307 301 306 319 327 328 328 327 329 332 335 335 337 339 338 337 332 334 336 336 335 334 332 328 330 330 331 329 333 336 339 338 338 337 338 336 334
300 290 287 290 291 293 296 294 299 300 297 297 304 302 306 326 328 325 325 325 326 329 331 333 335 338 338 336 332 330 331 331 331 329 326 324 326 326 326 325 330 334 336 338 336 337 336 332 329
295 288 290 293 294 292 292 291 293 291 290 294 298 299 303 303 309 317 319 320 319 324 327 331 334 337 337 336 335 332 334 332 329 327 325 326 323 325 325 323 326 330 332 334 335 335 331 327 326
293 289 292 291 293 292 291 289 291 288 287 293 291 293 294 295 296 297 308 321 322 322 326 330 333 337 335 335 334 332 333 332 327 323 324 324 324 323 324 324 327 329 326 331 330 329 327 325 324
289 291 291 294 293 290 288 290 288 288 289 292 291 292 293 296 295 297 298 298 304 316 324 328 329 334 334 334 333 332 331 330 328 324 324 323 323 322 323 323 323 328 330 328 325 323 321 321 324
287 289 291 292 291 290 291 288 288 288 290 291 293 294 294 295 295 295 297 297 298 300 309 323 328 330 333 332 332 332 331 330 328 325 324 324 323 322 323 324 324 327 329 326 324 323 320 320 321
290 290 289 290 291 291 289 286 286 288 290 292 292 291 291 291 292 291 292 293 294 296 300 309 324 329 331 331 331 331 331 330 328 326 324 324 324 322 323 324 324 325 326 325 324 323 319 319 317
291 287 287 288 290 287 286 283 283 287 290 290 290 290 290 291 292 292 293 293 293 294 295 300 310 325 328 330 331 330 330 329 327 326 326 324 324 322 323 324 324 325 325 323 323 320 317 313 314
287 284 278 285 286 287 286 278 285 287 289 288 290 291 290 290 292 293 294 294 295 292 293 296 305 318 325 327 329 331 330 329 327 327 326 325 324 323 323 323 323 325 325 322 319 316 311 308 307
279 274 277 280 285 286 285 280 286 289 289 288 289 289 290 291 292 292 293 293 294 295 292 294 298 303 320 324 326 327 330 328 327 327 326 325 325 323 323 324 324 323 323 320 317 314 309 303 300
275 276 278 278 283 285 283 282 286 288 287 287 288 289 289 290 291 294 294 294 293 292 292 293 296 298 304 316 318 323 326 327 327 326 325 325 325 323 324 324 323 322 322 318 315 311 307 302 298
280 280 278 280 285 282 281 281 284 286 286 286 286 287 288 289 292 291 291 292 293 294 295 296 296 297 298 304 310 315 320 322 324 325 325 324 324 323 323 324 321 321 319 316 313 308 299 295 293
280 278 274 280 284 282 281 280 284 285 285 286 286 287 287 288 290 291 292 294 296 297 298 299 299 299 299 300 307 312 317 320 322 324 324 323 324 323 323 321 319 319 316 313 310 305 298 294 296
279 277 278 277 281 281 280 276 279 283 285 287 288 288 288 288 288 291 295 294 295 295 296 297 299 300 300 300 301 303 310 315 318 320 321 322 323 323 322 320 318 318 315 311 308 304 302 293 295
278 282 281 280 275 266 279 267 276 281 283 285 286 286 286 287 291 292 293 293 293 294 294 295 297 298 300 300 300 299 300 301 305 317 320 321 322 322 322 317 317 317 315 311 308 303 301 297 294
279 283 281 280 272 268 268 267 273 280 280 282 285 286 286 288 289 291 292 293 294 293 293 294 295 297 298 299 300 300 300 302 306 312 316 318 321 322 321 316 315 315 314 310 308 303 300 299 297
284 282 279 278 270 264 268 269 272 274 278 281 284 286 287 287 289 290 292 293 293 294 294 294 294 296 298 298 299 300 300 300 302 308 312 312 311 319 318 314 313 314 312 309 306 304 300 298 297
281 275 263 263 261 265 274 266 274 279 280 282 283 284 286 287 287 287 289 291 292 292 291 292 294 295 296 297 297 297 298 300 300 302 306 311 310 314 313 312 312 312 310 308 305 300 298 297 295
278 275 265 260 262 265 275 268 274 281 283 284 284 285 286 287 287 288 290 290 292 291 291 293 294 294 295 295 295 296 297 298 300 301 302 307 308 308 310 310 311 310 307 306 302 301 298 297 296
278 275 278 264 260 265 267 273 279 282 281 283 283 284 284 285 286 288 289 290 291 290 291 293 293 293 293 294 295 295 296 296 297 298 300 302 308 307 306 309 309 307 305 302 301 299 297 296 294
279 281 271 267 260 256 264 266 273 277 278 280 281 282 283 285 286 287 288 289 290 291 292 292 293 293 293 293 294 295 295 295 296 299 300 301 309 308 305 306 306 304 303 302 300 297 295 294 292
276 275 276 273 270 263 262 271 277 277 278 280 281 283 284 285 286 287 288 289 290 291 291 291 291 290 290 291 292 294 295 296 296 296 300 305 307 303 303 303 303 302 301 300 299 295 292 291 289
280 277 277 267 266 270 270 271 281 282 281 281 282 283 284 285 286 288 288 290 290 290 289 289 289 289 289 291 292 293 294 295 296 295 298 305 303 300 300 300 300 300 298 297 295 292 292 290 288
Wind_Speed
10 10 0 5 4 5 3 6 3 7 1 3 4 4 7 4 1 4 3 9 12 16 15 15 15 16 16 15 17 18 17 17 18 17 17 16 17 17 16 15 14 14 15 16 15 15 15 15 15
6 5 5 3 5 2 6 5 3 3 2 3 3 3 4 1 3 4 6 9 15 16 14 15 17 17 16 16 17 15 15 14 16 17 17 17 17 17 17 16 14 14 14 14 15 15 15 14 14
5 1 4 4 3 6 5 3 1 3 5 2 3 4 2 2 2 5 2 14 14 14 14 13 18 19 18 16 17 16 15 14 14 16 16 16 17 17 17 16 16 15 14 15 14 14 13 12 11
3 5 4 3 5 7 5 6 5 7 4 1 1 2 3 1 5 4 11 13 14 14 15 15 19 19 19 19 17 16 15 16 15 15 15 16 16 14 16 16 16 16 15 15 14 14 13 11 10
3 3 1 2 6 7 5 3 4 7 4 2 5 2 2 3 3 7 9 10 11 11 11 13 17 20 20 19 19 19 18 16 16 16 15 15 14 15 15 14 14 16 16 16 15 14 12 11 11
3 3 2 5 7 7 6 6 5 4 5 2 2 5 3 1 1 3 8 7 7 11 9 12 13 15 18 20 19 19 19 19 17 16 16 14 14 13 14 14 15 14 16 16 16 14 14 16 16
6 4 4 4 4 5 5 9 4 6 6 5 5 4 1 0 2 2 7 8 8 9 9 11 12 12 13 15 16 17 18 18 19 18 17 15 14 14 12 14 14 14 18 17 16 14 18 18 18
5 4 2 3 4 7 8 8 2 8 5 11 6 4 3 3 6 6 8 7 5 8 11 12 12 12 11 10 13 12 15 16 16 16 15 15 12 13 11 12 13 12 17 16 13 16 19 19 19
3 3 3 4 4 4 5 7 2 6 3 6 3 3 2 2 7 7 5 2 3 1 4 5 11 12 13 11 10 12 12 12 14 15 13 11 8 10 10 6 9 7 17 17 15 17 21 19 18
4 3 7 1 1 2 4 4 7 7 6 5 2 4 5 3 3 3 4 7 3 4 5 6 9 12 11 11 11 11 10 9 9 9 10 8 8 7 8 8 8 8 15 17 18 17 22 15 8
3 6 2 2 4 2 4 3 3 3 7 1 8 16 2 6 5 5 5 7 8 2 4 7 9 11 12 10 8 7 7 7 6 7 8 6 6 6 5 3 4 4 10 8 11 12 8 11 8
2 0 2 2 1 2 4 4 5 8 9 7 8 9 8 3 6 6 7 6 6 6 7 8 10 10 13 10 9 10 8 9 7 8 9 8 5 6 6 5 5 5 6 9 9 6 7 9 10
2 4 7 6 9 5 4 5 5 11 8 8 8 8 9 10 7 6 7 6 8 7 7 7 9 11 12 13 10 11 11 10 13 10 11 10 9 8 7 7 6 6 8 9 8 7 7 8 10
4 6 9 7 6 4 4 5 2 7 5 8 7 9 9 10 10 8 6 7 8 8 8 8 7 11 11 11 13 11 11 12 12 12 13 14 11 9 8 8 8 8 9 9 10 9 8 8 10
4 6 8 3 2 2 2 8 7 7 5 10 11 10 11 11 10 12 11 10 9 9 10 8 8 9 13 13 13 11 11 12 12 13 16 17 14 13 12 9 8 8 8 11 10 9 10 9 8
5 3 5 3 8 1 6 8 11 9 8 13 14 15 11 11 12 14 14 15 11 8 9 9 8 7 9 11 10 11 12 12 12 13 13 19 18 17 13 10 9 9 9 9 9 11 10 9 9
6 3 3 10 1 5 5 9 11 12 12 18 15 14 14 15 14 12 13 12 13 11 8 8 7 8 7 8 7 9 13 13 13 13 13 19 19 19 16 12 10 11 9 10 10 9 14 10 8
3 5 5 6 6 5 11 19 17 15 9 16 16 14 11 13 17 16 12 9 8 8 7 6 5 7 7 5 5 5 9 12 14 15 16 20 17 19 17 13 12 12 11 10 11 14 9 11 11
2 3 7 7 6 8 8 13 22 22 11 12 13 11 11 13 15 10 9 9 7 6 5 5 4 6 3 3 4 4 6 10 10 14 22 23 20 21 18 13 13 14 13 14 14 12 16 9 11
2 4 7 8 2 7 13 22 21 11 7 6 9 11 10 8 10 9 6 6 5 3 4 6 6 6 4 3 4 3 4 4 8 8 15 21 23 22 19 16 16 16 13 16 17 17 10 5 11
3 4 4 8 6 5 13 9 7 4 3 7 9 9 8 7 10 8 6 4 4 5 5 5 8 10 6 6 3 4 4 4 5 7 7 15 21 22 22 19 16 19 16 15 17 16 16 12 8
4 3 4 7 7 3 7 10 9 5 9 8 10 9 8 7 4 2 4 6 6 7 6 7 8 8 10 8 6 7 7 9 6 7 8 10 19 21 22 18 17 17 14 18 17 15 13 14 14
7 3 7 4 3 4 6 3 12 4 8 10 9 9 7 7 7 7 8 8 7 6 6 6 8 12 16 16 13 10 12 9 8 6 8 10 14 22 23 22 20 18 13 16 19 17 15 12 13
4 5 4 3 3 4 4 5 10 4 8 5 6 8 9 9 9 10 9 8 9 8 8 8 15 18 17 17 17 16 15 15 9 9 7 8 10 12 22 21 20 18 17 17 16 18 18 14 11
4 5 6 8 6 7 2 3 15 13 10 9 15 12 10 9 9 10 10 9 13 11 10 11 15 18 16 18 17 17 17 15 16 13 10 10 6 8 16 21 19 16 15 17 14 15 14 14 12
2 5 7 7 3 7 2 10 12 9 10 10 11 9 9 10 11 13 15 15 16 13 13 14 18 19 16 17 19 17 19 13 12 12 10 9 9 7 11 20 21 21 19 16 15 12 12 12 11
3 3 3 4 1 3 5 8 14 14 6 7 10 9 12 15 14 21 21 19 14 15 16 16 19 19 19 19 18 19 17 16 15 18 14 11 12 12 13 17 20 19 19 20 17 12 14 13 12
4 5 3 4 2 7 7 8 17 11 10 9 13 14 14 19 21 20 19 17 15 16 17 18 20 21 19 21 18 17 19 20 18 14 16 19 16 16 17 17 15 19 21 19 20 14 11 13 9
4 3 2 4 5 6 6 15 10 9 7 15 13 15 23 22 23 22 20 15 17 19 20 20 20 22 21 20 20 19 18 19 20 17 15 14 15 17 19 16 18 20 19 20 17 14 17 15 12
4 7 7 7 7 5 3 21 3 13 9 11 23 21 22 22 22 18 17 20 21 21 17 20 19 20 19 19 19 20 19 19 19 20 19 16 16 17 19 17 13 21 20 20 19 18 17 17 16
Wind_Direction
328 312 323 39 53 58 262 267 306 321 63 293 279 121 139 93 157 220 345 168 137 154 160 163 168 166 168 165 161 158 161 158 152 155 154 151 148 145 140 138 135 136 134 129 127 126 124 119 119
313 322 36 82 93 82 271 266 111 310 259 299 342 11 42 155 140 150 118 169 156 154 161 165 166 169 169 168 163 166 166 160 155 159 158 156 153 148 144 145 141 141 137 133 129 129 129 126 126
302 311 76 104 136 189 207 210 261 275 308 358 350 48 77 86 355 187 95 148 148 157 163 168 168 168 169 164 164 168 167 163 162 164 165 163 158 154 152 147 152 144 142 137 133 132 132 129 128
8 9 26 106 226 258 212 275 332 299 267 102 140 57 56 331 170 194 136 150 153 161 165 165 170 171 171 165 166 170 171 166 166 170 173 168 165 163 149 160 148 148 148 140 139 136 136 136 132
31 65 70 232 248 257 269 276 252 276 268 214 140 186 40 359 48 106 140 157 152 161 168 168 173 172 172 169 170 171 170 174 170 172 177 174 172 162 162 175 163 152 147 143 143 144 147 137 134
46 86 96 234 240 265 286 343 304 286 286 257 103 115 195 273 88 154 137 154 158 162 168 175 175 176 173 173 177 176 173 173 173 176 178 170 179 171 171 166 163 159 149 150 150 154 146 129 129
126 97 224 232 264 295 302 331 45 319 322 318 296 96 212 230 223 193 162 157 167 173 162 177 180 178 178 176 178 179 176 178 176 178 182 178 175 173 164 172 172 168 156 160 157 142 127 121 122
112 102 272 252 195 266 349 351 25 31 294 308 336 33 7 338 19 20 11 14 183 172 176 180 182 179 179 184 174 183 181 181 181 177 187 180 169 180 169 180 190 186 167 162 163 132 123 122 121
123 79 215 243 183 251 357 6 307 288 319 328 43 82 266 32 21 6 348 20 19 283 181 187 185 186 180 178 183 184 189 187 182 181 176 172 176 183 178 202 207 192 173 157 151 134 125 124 118
94 146 222 270 100 309 333 355 319 356 339 297 320 94 47 15 319 298 283 288 253 253 244 188 192 191 191 180 184 186 192 195 193 187 182 173 168 180 174 194 201 211 168 156 151 133 125 131 130
177 200 220 148 93 353 307 291 302 321 313 251 309 308 334 271 248 249 254 233 256 242 223 219 204 200 185 193 183 191 192 187 191 185 179 175 168 177 180 184 195 183 163 154 142 135 141 138 141
250 231 23 282 327 291 263 266 288 209 231 266 277 272 291 193 218 240 275 278 279 275 223 221 212 215 200 193 185 191 194 180 194 189 179 177 175 188 183 188 186 171 157 153 155 153 137 141 138
2 318 313 305 309 282 270 262 265 265 247 273 284 307 299 308 303 206 235 280 286 278 281 249 225 215 210 200 195 191 194 195 187 187 188 183 184 188 186 194 186 173 156 157 155 150 140 130 129
326 309 288 289 281 289 284 271 43 270 302 319 320 309 306 303 293 296 260 246 259 271 248 249 225 226 231 210 204 199 197 194 194 189 190 187 185 189 192 197 195 177 163 161 155 151 140 138 139
317 326 320 229 276 3 2 292 222 252 338 305 302 311 297 284 287 285 282 270 235 247 256 245 238 220 225 239 209 206 205 196 194 198 192 189 187 189 190 198 192 185 167 158 151 144 131 130 135
360 18 344 292 352 77 79 277 287 280 328 297 299 293 288 274 269 273 269 277 270 235 247 243 247 246 234 234 240 213 207 202 200 198 197 194 190 187 190 192 192 180 166 156 154 148 131 132 134
10 273 299 314 349 348 57 280 261 286 298 288 288 289 289 286 290 268 258 257 263 271 249 255 250 258 247 240 245 225 220 206 201 198 197 198 199 193 188 193 186 169 166 162 156 154 141 135 125
300 323 306 255 293 354 292 265 280 278 266 281 284 284 276 273 268 270 274 267 266 266 267 254 259 266 271 260 253 232 217 244 202 200 197 199 198 196 193 190 179 171 165 163 159 149 139 136 130
183 242 256 261 280 318 267 281 287 296 292 280 277 275 271 270 274 276 269 261 261 262 280 283 288 272 267 292 261 240 227 229 258 207 197 195 193 190 198 189 174 174 172 165 159 144 131 118 132
287 300 285 287 325 340 298 290 270 281 259 246 265 275 273 280 296 295 254 218 217 237 265 290 273 256 244 214 232 247 259 237 235 236 235 196 189 189 186 192 177 176 165 158 157 154 141 113 166
276 217 271 254 320 257 315 301 324 322 276 269 275 251 266 267 288 293 332 349 336 308 295 299 297 303 274 258 270 271 268 270 243 220 240 231 192 185 187 187 188 176 168 165 164 161 155 153 185
279 192 262 284 15 264 68 285 305 285 290 295 281 284 293 289 303 343 342 315 298 289 305 307 301 296 305 300 262 244 252 259 255 242 227 224 208 192 183 181 180 181 173 167 168 166 161 152 170
235 336 280 280 203 43 334 69 272 314 278 274 271 291 256 248 247 263 262 258 263 275 264 265 271 281 286 279 264 262 259 248 249 237 222 218 248 188 186 181 177 178 182 173 165 166 167 171 166
335 307 20 20 117 19 245 125 274 236 220 231 257 275 258 274 267 264 251 248 244 245 252 253 273 275 270 264 263 257 252 251 235 233 223 225 224 243 178 180 178 178 169 171 169 171 168 167 167
52 34 329 347 5 226 191 31 244 266 246 250 273 269 259 267 266 269 263 251 270 244 246 269 272 269 262 257 257 258 255 248 241 227 226 208 204 213 198 174 177 176 167 168 163 165 168 169 165
227 165 153 256 277 272 113 245 249 239 272 265 263 256 281 275 277 285 283 278 277 251 269 277 276 269 265 260 256 252 251 248 242 231 226 224 211 165 238 179 173 174 159 163 158 168 169 168 167
179 214 172 96 160 2 238 285 284 270 261 282 293 282 293 293 289 295 295 284 268 266 272 274 278 272 266 262 261 255 248 238 239 243 238 231 211 201 155 226 171 168 158 158 157 166 170 168 165
179 157 79 0 331 287 265 264 247 282 285 291 295 290 288 293 294 292 291 283 271 275 285 290 278 275 273 268 259 253 248 244 239 242 230 224 199 186 183 192 184 166 159 163 155 164 156 157 152
159 218 142 120 165 196 304 280 214 246 262 293 291 291 306 302 301 300 299 292 287 298 290 287 283 279 274 266 260 253 246 240 238 229 236 225 183 165 171 177 188 165 160 162 160 165 153 151 139
196 196 155 144 243 231 194 267 252 272 276 305 309 303 301 301 300 302 299 304 303 293 295 293 286 281 274 266 257 251 243 235 227 226 219 220 177 166 165 162 189 164 158 157 157 159 157 151 152